パンスターズ彗星

P/2020 S7 ( PanSTARRS )

English version
Home page
Updated on February 21, 2021

---------------------------------------------------------------------

・ プロフィール

発見日 2020年9月16日
発見光度 20.8等
発見者 Pan-STARRS 1 telescope (Haleakala)

・ 軌道要素

Epoch 2020 Nov. 7.0 TT = JDT 2459160.5
T 2020 Nov. 18.04527 TT                                 Rudenko
q   2.9610147            (2000.0)            P               Q
n   0.08754917     Peri.   40.39888     +0.97577742     -0.16219160
a   5.0230559      Node   328.01875     +0.04308733     +0.80041044
e   0.4105153      Incl.   16.09208     +0.21448054     +0.57709360
P  11.3
From 126 observations 2020 Aug. 22-Dec. 6, mean residual 0".4.

・ 光度変化

        m1 = 14.0 + 5 logΔ + 10.0 log r

---------------------------------------------------------------------

軌道要素はM.P.E.C. 2021-B143に掲載されたものです。
光度グラフはComet for Windowsで作成したものです。

---------------------------------------------------------------------

Copyright(C) Seiichi Yoshida (comet@aerith.net). All rights reserved.